STARLINK-31999, 60101

Orbit data source: Space-Track

STARLINK-31999, 60101 is a payload satellite owned by SpaceX/Seattle (US) in LEO that was launched on Sun, 23 Jun 2024 UTC via an FALCON 9 launch vehicle from the Air Force Eastern Test Range (AFETR). Payload-class satellites include a variety of spacecraft equipped with specific instruments for various scientific and technological missions. These include communications satellites like Starlink; space stations such as the ISS; scientific satellites like the Hubble; Earth observation satellites from companies like Planet Labs, Umbra, and HawkEye 360; GPS; miniature CubeSats for education and research; and military/defense satellites.

Loading next visibility...
Identifier
60101, 2024-117L
Orbit
LEO
Country
Flag of USUS
Related business
Manufacturer
SpaceX/Seattle
Mission
Operational Commercial Communications
Bus & Motor
STARLINK V2M, Unknown motor
Mass
730 kg wet, ~700 kg dry
Launch date (UTC)
2024-06-23 (2 years ago)
Launch vehicle
FALCON 9
Launch site
Air Force Eastern Test Range (AFETR)
Object type
Payload
Rocket body
Debris
Shape & HBR
Box + 2 Pan, 17.7 m
Radar Cross Section
33.884 m², Large (>1 m²)

Expand to show TLE details & history
Last TLE update: 1 day ago

TLE from 1 day ago
0 STARLINK-31999
1 60101U 24117L   26170.58644496 -.00000678  00000-0 -10780-4 0  9998
2 60101  53.1614 284.0859 0001233  80.5744 279.5397 15.30197386112484
Epoch: 2026-06-19T14:04Z
TLE epoch observation values (Epoch: 2026-06-19T14:04:28.844Z)
Latitude
0.00005°
Longitude
165.15246°
Altitude
475.983 km
Speed
7.629 km/s
True Right ascension
18h 56m 20s
True Declination
0° 00' 00"
Sunlit
Object was in full shadow at epoch
Visualization orbit readout
Latitude
Unknown
Longitude
Unknown
Altitude
Unknown
Speed
Unknown
Apparent Right ascension
Unknown
Apparent Declination
Unknown
Sunlit
N/A
Visualization observer readout
Local Sidereal Time
07:12:50
Azimuth
Unknown
Elevation
Unknown
Doppler factor
Unknown
Orbital elements
Apogee altitude
476.324 km
Perigee altitude
474.634 km
Semi-major axis
6,853.616 km
Eccentricity
0.00012
Inclination
53.1614°
RAAN
284.0859°
Arg. of periapsis
80.5744°
True anomaly
279.52577°
Mean anomaly
279.5397°
Eccentric anomaly
279.53273°
Mean motion
3.82528 °/min
Orbital period
94.11 mins
BSTAR
-0.00001078
Loading maneuver chart data...
Computing Atmospheric mass density...
Loading historical data...
Loading historical data...
Loading historical data...
Loading historical data...
Loading historical data...
Loading historical data...
Loading historical data...

Documentation

Showing up to 5 results
|